sat.trackr.live / text

‹ back to catalog

TIGRISAT

NORAD 40043 · 2014-033AK

PAYLOAD ACTIVE UNKNOWN

§ Identity

Operator
Country
IRAQ
Launch date
2014-06-19
Launch site
DLS
Launch vehicle
Mass (kg)
RCS (m²)
0.06

Purposes: tech_demo

External: N2YO · Heavens-Above · Gunter

§ Orbital elements

Epoch: 2026-05-25T03:22:16.075776Z

Period
96.97 min
Inclination
97.7804°
Eccentricity
0.0050151
Mean motion
14.85046913 rev/d
Perigee alt
578.4 km
Apogee alt
648.5 km
Semi-major
6,991.6 km
B*
2.2886e-4
RAAN
295.6859°
Arg perigee
148.9105°
Mean anomaly
211.5095°
Rev number
64,220

§ Raw data

TIGRISAT1 40043U 14033AK  26145.14046384  .00001943  00000+0  22886-3 0  99952 40043  97.7804 295.6859 0050151 148.9105 211.5095 14.85046913642200

JSON: /api/v1/satellites/40043 · /tle

For live sub-satellite position, see the globe view (requires WebGL).

§ Visibility from observer

Set your observer location to see the next 7 days of passes ≥ 10°. The values pass through the URL so the page stays shareable.

No JS? Fill the form by hand. The geolocation button needs JavaScript.

§ Radio — SatNOGS DB

ModeDescriptionDownlinkUplink
FSK 9k6 FSK TLM 435.000 MHz

1 transmitter · refreshed weekly from db.satnogs.org